Find Starlink 36237

NORAD ID: 68337 Int'l Des: 2026-059 Owner: SPXS Country: US Constellation: starlink operational
LEOCIRCULAR

Current View

Loading 3D Globe...

About Starlink 36237

Starlink 36237 (NORAD 68337) is a starlink constellation satellite (v2 mini) launched Mar 22, 2026 by SPXS of US. It operates in LEO, CIRCULAR orbit with a mass of 575.00 kg.

About Starlink 36237

Description loading...

Upcoming Passes

Passes for default location (London). Set your location on the main map for personalized predictions.

Altitude History

Loading altitude history...

Two-Line Element Set

1 68337U 26059S 26173.42730454 .00014917 00000-0 45173-3 0 9992
2 68337 53.1562 216.6229 0000835 84.5770 275.5328 15.34401246 14283
Epoch: Jun 22, 2026 • Age: 21 hours

Current Status

Altitude 469.3 km
Velocity 7.63 km/s
Sub-Earth Point -22.60°S, 26.84°E
Launch Date Mar 22, 2026
Age 0.2 years
Type internet

Technical Details

Classification Payload
Mass 575.00 kg
Dry Mass 530.00 kg
Total Mass 575.00 kg
Length 0.30 m
Diameter 4.10 m
Span 29.00 m
Shape Box + pan
Manufacturer SPXS
Bus Type Starlink V2MO
Phase Status In Orbit
Owner/State SPXS/US

Most Searched